| time (UTC) | temp C | wind direction | speed KPH | gust KPH | rain 1hr cm | rain 24hr cm | rain mn cm | humidity % | barometer mb |
| 20260509201558 | 17 | 96 | 0.0 | 4.8 | 0.00 | 0.03 | 0.03 | 76 | 1010.8 |
| 20260509201057 | 17 | 354 | 0.0 | 1.6 | 0.00 | 0.03 | 0.03 | 77 | 1010.7 |
| 20260509200556 | 17 | 36 | 0.0 | 1.6 | 0.00 | 0.03 | 0.03 | 77 | 1010.8 |
| 20260509200053 | 17 | 4 | 0.0 | 1.6 | 0.00 | 0.03 | 0.03 | 76 | 1010.8 |
| 20260509195548 | 17 | 39 | 3.2 | 4.8 | 0.00 | 0.03 | 0.03 | 79 | 1010.7 |
| 20260509195043 | 17 | 320 | 1.6 | 1.6 | 0.00 | 0.03 | 0.03 | 79 | 1010.9 |
| 20260509194538 | 17 | 333 | 1.6 | 4.8 | 0.00 | 0.03 | 0.03 | 78 | 1010.7 |
| 20260509194036 | 17 | 14 | 0.0 | 3.2 | 0.00 | 0.03 | 0.03 | 80 | 1010.8 |
| 20260509193536 | 16 | 15 | 0.0 | 3.2 | 0.00 | 0.03 | 0.03 | 78 | 1010.9 |
| 20260509193033 | 16 | 120 | 3.2 | 4.8 | 0.00 | 0.03 | 0.03 | 81 | 1011.0 |
| 20260509192530 | 17 | 105 | 3.2 | 3.2 | 0.00 | 0.03 | 0.03 | 79 | 1010.9 |
| 20260509192025 | 16 | 94 | 0.0 | 3.2 | 0.00 | 0.03 | 0.03 | 79 | 1011.0 |
| 20260509191519 | 16 | 54 | 0.0 | 6.4 | 0.00 | 0.03 | 0.03 | 79 | 1011.0 |
| 20260509191015 | 16 | 346 | 1.6 | 3.2 | 0.00 | 0.03 | 0.03 | 80 | 1011.1 |
| 20260509190513 | 16 | 340 | 1.6 | 4.8 | 0.00 | 0.03 | 0.03 | 79 | 1011.1 |
| 20260509190010 | 16 | 324 | 3.2 | 3.2 | 0.00 | 0.03 | 0.03 | 82 | 1010.9 |
| 20260509185507 | 16 | 304 | 3.2 | 3.2 | 0.00 | 0.03 | 0.03 | 81 | 1011.0 |
| 20260509185004 | 16 | 314 | 1.6 | 4.8 | 0.00 | 0.03 | 0.03 | 80 | 1011.0 |
| 20260509184503 | 16 | 306 | 3.2 | 4.8 | 0.00 | 0.03 | 0.03 | 81 | 1011.0 |
| 20260509183958 | 16 | 7 | 3.2 | 4.8 | 0.00 | 0.03 | 0.03 | 80 | 1010.9 |
| 20260509183458 | 16 | 3 | 1.6 | 4.8 | 0.00 | 0.03 | 0.03 | 82 | 1011.1 |
| 20260509182955 | 16 | 323 | 1.6 | 6.4 | 0.00 | 0.03 | 0.03 | 81 | 1011.1 |
| 20260509182451 | 16 | 13 | 0.0 | 1.6 | 0.00 | 0.03 | 0.03 | 81 | 1011.1 |
| 20260509181949 | 15 | 311 | 3.2 | 3.2 | 0.00 | 0.03 | 0.03 | 82 | 1011.1 |
| 20260509181447 | 15 | 17 | 3.2 | 3.2 | 0.00 | 0.03 | 0.03 | 82 | 1011.4 |
| 20260509180944 | 15 | 60 | 1.6 | 3.2 | 0.00 | 0.03 | 0.03 | 82 | 1011.3 |
| 20260509180439 | 15 | 95 | 4.8 | 6.4 | 0.00 | 0.03 | 0.03 | 83 | 1011.3 |
| 20260509175937 | 15 | 346 | 3.2 | 4.8 | 0.00 | 0.03 | 0.03 | 83 | 1011.3 |
| 20260509175433 | 15 | 317 | 1.6 | 6.4 | 0.00 | 0.03 | 0.03 | 83 | 1011.3 |
| 20260509174929 | 16 | 10 | 0.0 | 3.2 | 0.00 | 0.03 | 0.03 | 82 | 1011.2 |
| 20260509174425 | 16 | 336 | 0.0 | 1.6 | 0.00 | 0.03 | 0.03 | 82 | 1011.3 |
| 20260509173921 | 16 | 353 | 0.0 | 1.6 | 0.00 | 0.03 | 0.03 | 82 | 1011.3 |
| 20260509173421 | 15 | 318 | 1.6 | 3.2 | 0.00 | 0.03 | 0.03 | 84 | 1011.7 |
| 20260509172918 | 15 | 335 | 0.0 | 3.2 | 0.00 | 0.03 | 0.03 | 85 | 1011.7 |
| 20260509172414 | 15 | 329 | 3.2 | 4.8 | 0.00 | 0.03 | 0.03 | 85 | 1011.7 |
| 20260509171910 | 15 | 354 | 3.2 | 4.8 | 0.00 | 0.03 | 0.03 | 85 | 1011.9 |
| 20260509171407 | 15 | 25 | 1.6 | 4.8 | 0.00 | 0.03 | 0.03 | 84 | 1011.9 |
| 20260509170903 | 15 | 46 | 0.0 | 3.2 | 0.00 | 0.03 | 0.03 | 86 | 1012.0 |
| 20260509170358 | 14 | 314 | 0.0 | 1.6 | 0.00 | 0.03 | 0.03 | 88 | 1012.2 |
| 20260509165854 | 14 | 320 | 1.6 | 3.2 | 0.00 | 0.03 | 0.03 | 88 | 1012.0 |
| 20260509165348 | 14 | 311 | 3.2 | 4.8 | 0.00 | 0.03 | 0.03 | 88 | 1012.1 |
| 20260509164844 | 15 | 10 | 1.6 | 1.6 | 0.00 | 0.03 | 0.03 | 89 | 1012.0 |
| 20260509164341 | 14 | 80 | 3.2 | 3.2 | 0.00 | 0.03 | 0.03 | 88 | 1012.1 |
| 20260509163837 | 14 | 318 | 3.2 | 3.2 | 0.00 | 0.03 | 0.03 | 89 | 1012.2 |
| 20260509163328 | 14 | 115 | 0.0 | 4.8 | 0.00 | 0.03 | 0.03 | 88 | 1012.3 |
| 20260509162828 | 14 | 58 | 1.6 | 1.6 | 0.00 | 0.03 | 0.03 | 88 | 1012.4 |
| 20260509162325 | 14 | 53 | 1.6 | 3.2 | 0.00 | 0.03 | 0.03 | 88 | 1012.4 |
| 20260509161822 | 14 | 316 | 0.0 | 0.0 | 0.00 | 0.03 | 0.03 | 87 | 1012.8 |
| 20260509161319 | 14 | 316 | 0.0 | 0.0 | 0.00 | 0.03 | 0.03 | 86 | 1012.6 |
| 20260509160814 | 14 | 316 | 0.0 | 0.0 | 0.00 | 0.03 | 0.03 | 85 | 1012.5 |
| 20260509160310 | 14 | 316 | 0.0 | 0.0 | 0.00 | 0.03 | 0.03 | 85 | 1012.6 |
| 20260509155806 | 14 | 316 | 0.0 | 0.0 | 0.00 | 0.03 | 0.03 | 85 | 1012.9 |
| 20260509155306 | 15 | 316 | 0.0 | 0.0 | 0.00 | 0.03 | 0.03 | 85 | 1012.6 |
| 20260509154758 | 14 | 316 | 0.0 | 0.0 | 0.00 | 0.03 | 0.03 | 87 | 1012.6 |
| 20260509154256 | 14 | 316 | 0.0 | 0.0 | 0.00 | 0.03 | 0.03 | 86 | 1012.7 |
| 20260509153752 | 14 | 316 | 0.0 | 1.6 | 0.00 | 0.03 | 0.03 | 86 | 1012.7 |
| 20260509153243 | 13 | 316 | 0.0 | 1.6 | 0.00 | 0.03 | 0.03 | 86 | 1012.5 |
| 20260509152740 | 13 | 316 | 0.0 | 1.6 | 0.00 | 0.03 | 0.03 | 85 | 1012.7 |
| 20260509152237 | 13 | 327 | 0.0 | 0.0 | 0.00 | 0.03 | 0.03 | 86 | 1012.6 |
| 20260509151733 | 13 | 327 | 1.6 | 1.6 | 0.00 | 0.03 | 0.03 | 87 | 1012.7 |
| 20260509151230 | 13 | 327 | 0.0 | 0.0 | 0.00 | 0.03 | 0.03 | 88 | 1012.7 |
| 20260509150727 | 13 | 327 | 0.0 | 1.6 | 0.00 | 0.03 | 0.03 | 88 | 1012.7 |
| 20260509150226 | 13 | 327 | 0.0 | 0.0 | 0.00 | 0.03 | 0.03 | 88 | 1012.7 |
| 20260509145722 | 13 | 327 | 0.0 | 1.6 | 0.00 | 0.03 | 0.03 | 88 | 1012.5 |
| 20260509145217 | 13 | 327 | 0.0 | 0.0 | 0.00 | 0.03 | 0.03 | 88 | 1012.8 |
| 20260509144714 | 13 | 327 | 1.6 | 1.6 | 0.00 | 0.03 | 0.03 | 89 | 1012.8 |
| 20260509144211 | 13 | 327 | 1.6 | 3.2 | 0.00 | 0.03 | 0.03 | 89 | 1012.8 |
| 20260509143708 | 13 | 14 | 1.6 | 1.6 | 0.00 | 0.03 | 0.03 | 90 | 1012.9 |
| 20260509143205 | 12 | 23 | 0.0 | 1.6 | 0.00 | 0.03 | 0.03 | 89 | 1013.0 |
| 20260509142700 | 12 | 84 | 0.0 | 1.6 | 0.00 | 0.03 | 0.03 | 90 | 1012.8 |
| 20260509142158 | 12 | 83 | 1.6 | 1.6 | 0.00 | 0.03 | 0.03 | 90 | 1012.9 |
| 20260509141653 | 12 | 295 | 0.0 | 0.0 | 0.00 | 0.03 | 0.03 | 90 | 1013.1 |
| 20260509141150 | 12 | 295 | 0.0 | 1.6 | 0.00 | 0.03 | 0.03 | 91 | 1013.0 |
| 20260509140647 | 11 | 295 | 0.0 | 1.6 | 0.00 | 0.03 | 0.03 | 91 | 1013.1 |
| 20260509140145 | 11 | 315 | 0.0 | 0.0 | 0.00 | 0.03 | 0.03 | 93 | 1013.1 |
| 20260509135642 | 11 | 315 | 0.0 | 0.0 | 0.00 | 0.03 | 0.03 | 92 | 1012.9 |
| 20260509135140 | 11 | 315 | 3.2 | 3.2 | 0.00 | 0.03 | 0.03 | 91 | 1013.0 |
| 20260509134636 | 11 | 349 | 1.6 | 1.6 | 0.00 | 0.03 | 0.03 | 91 | 1013.1 |
| 20260509134134 | 11 | 82 | 0.0 | 0.0 | 0.00 | 0.03 | 0.03 | 91 | 1012.9 |
| 20260509133631 | 11 | 85 | 0.0 | 0.0 | 0.00 | 0.03 | 0.03 | 91 | 1013.1 |
| 20260509133128 | 11 | 85 | 0.0 | 0.0 | 0.18 | 0.03 | 0.03 | 91 | 1013.0 |
| 20260509132626 | 11 | 85 | 0.0 | 0.0 | 0.18 | 0.03 | 0.03 | 91 | 1013.2 |
| 20260509132124 | 11 | 29 | 0.0 | 1.6 | 0.00 | 0.00 | 0.00 | 90 | 1013.0 |
| 20260509131620 | 11 | 357 | 1.6 | 3.2 | 0.00 | 0.00 | 0.00 | 89 | 1012.8 |
| 20260509131117 | 11 | 74 | 1.6 | 4.8 | 0.00 | 0.00 | 0.00 | 90 | 1012.7 |
| 20260509130613 | 11 | 274 | 0.0 | 1.6 | 0.00 | 0.00 | 0.00 | 91 | 1012.6 |
| 20260509130110 | 11 | 265 | 1.6 | 1.6 | 0.00 | 0.00 | 0.00 | 92 | 1013.0 |
| 20260509125606 | 11 | 265 | 0.0 | 1.6 | 0.00 | 0.00 | 0.00 | 91 | 1012.8 |
| 20260509125102 | 11 | 253 | 0.0 | 0.0 | 0.00 | 0.00 | 0.00 | 91 | 1013.0 |
| 20260509124559 | 11 | 253 | 0.0 | 0.0 | 0.00 | 0.00 | 0.00 | 90 | 1013.2 |
| 20260509124056 | 11 | 254 | 0.0 | 1.6 | 0.00 | 0.00 | 0.00 | 90 | 1013.2 |
| 20260509123554 | 11 | 152 | 0.0 | 4.8 | 0.00 | 0.00 | 0.00 | 90 | 1012.9 |
| 20260509123051 | 11 | 266 | 0.0 | 1.6 | 0.00 | 0.00 | 0.00 | 90 | 1012.9 |
| 20260509122547 | 11 | 281 | 0.0 | 0.0 | 0.00 | 0.00 | 0.00 | 92 | 1012.9 |
| 20260509122044 | 11 | 238 | 0.0 | 0.0 | 0.00 | 0.00 | 0.00 | 91 | 1013.1 |
| 20260509121540 | 11 | 238 | 0.0 | 0.0 | 0.00 | 0.00 | 0.00 | 92 | 1013.0 |
| 20260509121038 | 10 | 238 | 0.0 | 0.0 | 0.00 | 0.00 | 0.00 | 91 | 1013.0 |
| 20260509120536 | 10 | 238 | 0.0 | 0.0 | 0.00 | 0.00 | 0.00 | 91 | 1013.1 |
| 20260509120034 | 10 | 238 | 0.0 | 0.0 | 0.00 | 0.00 | 0.00 | 93 | 1013.2 |
| 20260509115531 | 10 | 238 | 0.0 | 0.0 | 0.00 | 0.00 | 0.00 | 93 | 1013.2 |
| 20260509115029 | 10 | 289 | 0.0 | 0.0 | 0.00 | 0.00 | 0.00 | 93 | 1013.1 |
| 20260509114527 | 10 | 289 | 0.0 | 0.0 | 0.00 | 0.00 | 0.00 | 92 | 1012.8 |
| 20260509114026 | 10 | 289 | 0.0 | 0.0 | 0.00 | 0.00 | 0.00 | 92 | 1013.2 |
| 20260509113523 | 10 | 289 | 0.0 | 0.0 | 0.00 | 0.00 | 0.00 | 92 | 1012.9 |
| 20260509113021 | 10 | 289 | 0.0 | 0.0 | 0.00 | 0.00 | 0.00 | 92 | 1013.0 |
| 20260509112517 | 10 | 289 | 0.0 | 0.0 | 0.00 | 0.00 | 0.00 | 92 | 1012.7 |
| 20260509112014 | 10 | 289 | 0.0 | 0.0 | 0.00 | 0.00 | 0.00 | 92 | 1012.9 |
| 20260509111511 | 10 | 289 | 0.0 | 0.0 | 0.00 | 0.00 | 0.00 | 92 | 1012.7 |
| 20260509111008 | 10 | 289 | 0.0 | 0.0 | 0.00 | 0.00 | 0.00 | 92 | 1012.7 |
| 20260509110505 | 10 | 289 | 0.0 | 0.0 | 0.00 | 0.00 | 0.00 | 92 | 1012.7 |
| 20260509110002 | 10 | 289 | 0.0 | 1.6 | 0.00 | 0.00 | 0.00 | 92 | 1012.6 |
| 20260509105500 | 10 | 289 | 0.0 | 0.0 | 0.00 | 0.00 | 0.00 | 92 | 1012.5 |
| 20260509104957 | 10 | 289 | 1.6 | 1.6 | 0.00 | 0.00 | 0.00 | 93 | 1012.7 |
| 20260509104454 | 10 | 289 | 0.0 | 0.0 | 0.00 | 0.00 | 0.00 | 93 | 1012.6 |
| 20260509103951 | 9 | 289 | 0.0 | 0.0 | 0.00 | 0.00 | 0.00 | 93 | 1012.6 |
| 20260509103449 | 9 | 291 | 0.0 | 0.0 | 0.00 | 0.00 | 0.00 | 93 | 1012.4 |
| 20260509102947 | 10 | 291 | 0.0 | 0.0 | 0.00 | 0.00 | 0.00 | 93 | 1012.3 |
| 20260509102444 | 10 | 291 | 0.0 | 1.6 | 0.00 | 0.00 | 0.00 | 92 | 1012.3 |
| 20260509101940 | 10 | 291 | 0.0 | 0.0 | 0.00 | 0.00 | 0.00 | 92 | 1012.4 |
| 20260509101436 | 10 | 291 | 0.0 | 0.0 | 0.00 | 0.00 | 0.00 | 92 | 1012.1 |
| 20260509100934 | 10 | 291 | 0.0 | 0.0 | 0.00 | 0.00 | 0.00 | 92 | 1012.2 |
| 20260509100431 | 10 | 291 | 0.0 | 1.6 | 0.00 | 0.00 | 0.00 | 91 | 1012.0 |
| 20260509095927 | 10 | 291 | 3.2 | 3.2 | 0.00 | 0.00 | 0.00 | 92 | 1012.2 |
| 20260509095425 | 10 | 291 | 0.0 | 0.0 | 0.00 | 0.00 | 0.00 | 91 | 1012.0 |
| 20260509094922 | 10 | 291 | 0.0 | 0.0 | 0.00 | 0.00 | 0.00 | 92 | 1012.1 |
| 20260509094418 | 10 | 292 | 0.0 | 1.6 | 0.00 | 0.00 | 0.00 | 91 | 1012.2 |
| 20260509093916 | 9 | 292 | 3.2 | 4.8 | 0.00 | 0.00 | 0.00 | 92 | 1012.3 |
| 20260509093413 | 9 | 284 | 1.6 | 1.6 | 0.00 | 0.00 | 0.00 | 93 | 1012.2 |
| 20260509092911 | 10 | 284 | 1.6 | 3.2 | 0.00 | 0.00 | 0.00 | 93 | 1012.2 |
| 20260509092409 | 9 | 173 | 1.6 | 3.2 | 0.00 | 0.00 | 0.00 | 93 | 1012.2 |
| 20260509091907 | 9 | 213 | 0.0 | 0.0 | 0.00 | 0.00 | 0.00 | 93 | 1012.6 |
| 20260509091404 | 9 | 213 | 0.0 | 0.0 | 0.00 | 0.00 | 0.00 | 93 | 1012.4 |
| 20260509090901 | 10 | 229 | 1.6 | 1.6 | 0.00 | 0.00 | 0.00 | 94 | 1012.3 |
| 20260509090358 | 10 | 257 | 0.0 | 0.0 | 0.00 | 0.00 | 0.00 | 92 | 1012.4 |
| 20260509085855 | 9 | 248 | 0.0 | 0.0 | 0.00 | 0.00 | 0.00 | 92 | 1012.3 |
| 20260509085353 | 9 | 236 | 0.0 | 0.0 | 0.00 | 0.00 | 0.00 | 92 | 1012.3 |
| 20260509084849 | 9 | 236 | 0.0 | 0.0 | 0.00 | 0.00 | 0.00 | 91 | 1012.2 |
| 20260509084346 | 10 | 236 | 0.0 | 0.0 | 0.00 | 0.00 | 0.00 | 91 | 1012.3 |
| 20260509083844 | 10 | 236 | 0.0 | 0.0 | 0.00 | 0.00 | 0.00 | 91 | 1012.2 |
| 20260509083340 | 10 | 236 | 0.0 | 0.0 | 0.00 | 0.00 | 0.00 | 90 | 1012.2 |
| 20260509082837 | 10 | 233 | 0.0 | 0.0 | 0.00 | 0.00 | 0.00 | 91 | 1012.1 |
| 20260509082333 | 9 | 233 | 0.0 | 1.6 | 0.00 | 0.00 | 0.00 | 91 | 1012.2 |
| 20260509081831 | 9 | 241 | 0.0 | 0.0 | 0.00 | 0.00 | 0.00 | 91 | 1012.1 |
| 20260509081328 | 9 | 241 | 0.0 | 0.0 | 0.00 | 0.00 | 0.00 | 91 | 1012.1 |
| 20260509080826 | 10 | 244 | 0.0 | 0.0 | 0.00 | 0.00 | 0.00 | 91 | 1012.1 |
| 20260509080323 | 10 | 244 | 0.0 | 0.0 | 0.00 | 0.00 | 0.00 | 90 | 1012.2 |
| 20260509075821 | 10 | 244 | 0.0 | 0.0 | 0.00 | 0.00 | 0.00 | 90 | 1012.2 |
| 20260509075318 | 10 | 244 | 0.0 | 0.0 | 0.00 | 0.00 | 0.00 | 91 | 1012.1 |
| 20260509074815 | 10 | 244 | 0.0 | 0.0 | 0.00 | 0.00 | 0.00 | 90 | 1012.3 |
| 20260509074313 | 10 | 244 | 0.0 | 1.6 | 0.00 | 0.00 | 0.00 | 90 | 1012.2 |
| 20260509073809 | 10 | 241 | 0.0 | 1.6 | 0.00 | 0.00 | 0.00 | 90 | 1012.0 |
| 20260509073305 | 10 | 241 | 0.0 | 0.0 | 0.00 | 0.00 | 0.00 | 89 | 1012.2 |
| 20260509072803 | 10 | 241 | 0.0 | 1.6 | 0.00 | 0.00 | 0.00 | 89 | 1012.0 |
| 20260509072259 | 9 | 240 | 0.0 | 3.2 | 0.00 | 0.00 | 0.00 | 88 | 1012.1 |
| 20260509071756 | 9 | 235 | 1.6 | 1.6 | 0.00 | 0.00 | 0.00 | 89 | 1012.0 |
| 20260509071253 | 9 | 219 | 0.0 | 0.0 | 0.00 | 0.00 | 0.00 | 89 | 1012.4 |
| 20260509070750 | 9 | 242 | 0.0 | 1.6 | 0.00 | 0.00 | 0.00 | 88 | 1012.0 |
| 20260509070246 | 9 | 242 | 0.0 | 0.0 | 0.00 | 0.00 | 0.00 | 87 | 1012.2 |
| 20260509065742 | 9 | 242 | 0.0 | 0.0 | 0.00 | 0.00 | 0.00 | 87 | 1012.0 |
| 20260509065239 | 9 | 242 | 0.0 | 0.0 | 0.00 | 0.00 | 0.00 | 86 | 1012.1 |
| 20260509064735 | 10 | 242 | 0.0 | 0.0 | 0.00 | 0.00 | 0.00 | 86 | 1012.0 |
| 20260509064233 | 10 | 242 | 0.0 | 0.0 | 0.00 | 0.00 | 0.00 | 85 | 1012.1 |
| 20260509063730 | 10 | 242 | 1.6 | 1.6 | 0.00 | 0.00 | 0.00 | 85 | 1012.2 |
| 20260509063226 | 10 | 243 | 0.0 | 1.6 | 0.00 | 0.00 | 0.00 | 85 | 1012.2 |
| 20260509062724 | 10 | 243 | 0.0 | 3.2 | 0.00 | 0.00 | 0.00 | 88 | 1012.5 |
| 20260509062221 | 10 | 230 | 0.0 | 0.0 | 0.00 | 0.00 | 0.00 | 86 | 1012.3 |
| 20260509061718 | 10 | 230 | 0.0 | 0.0 | 0.00 | 0.00 | 0.00 | 87 | 1012.5 |
| 20260509061216 | 10 | 230 | 0.0 | 0.0 | 0.00 | 0.00 | 0.00 | 85 | 1012.3 |
| 20260509060713 | 10 | 202 | 0.0 | 0.0 | 0.00 | 0.00 | 0.00 | 86 | 1012.4 |
| 20260509060209 | 10 | 202 | 0.0 | 0.0 | 0.00 | 0.00 | 0.00 | 85 | 1012.3 |
| 20260509055704 | 11 | 202 | 0.0 | 0.0 | 0.00 | 0.00 | 0.00 | 84 | 1012.4 |
| 20260509055200 | 11 | 202 | 0.0 | 1.6 | 0.00 | 0.00 | 0.00 | 83 | 1012.6 |
| 20260509054657 | 11 | 202 | 1.6 | 3.2 | 0.00 | 0.00 | 0.00 | 84 | 1012.8 |
| 20260509054155 | 11 | 239 | 0.0 | 0.0 | 0.00 | 0.00 | 0.00 | 82 | 1012.6 |
| 20260509053653 | 11 | 239 | 0.0 | 1.6 | 0.00 | 0.00 | 0.00 | 81 | 1012.7 |
| 20260509053150 | 11 | 220 | 0.0 | 0.0 | 0.00 | 0.00 | 0.00 | 82 | 1012.8 |
| 20260509052648 | 11 | 220 | 0.0 | 1.6 | 0.00 | 0.00 | 0.00 | 82 | 1012.9 |
| 20260509052145 | 11 | 220 | 0.0 | 0.0 | 0.00 | 0.00 | 0.00 | 81 | 1013.0 |
| 20260509051643 | 11 | 220 | 0.0 | 0.0 | 0.00 | 0.00 | 0.00 | 82 | 1013.0 |
| 20260509051140 | 11 | 220 | 0.0 | 0.0 | 0.00 | 0.00 | 0.00 | 83 | 1013.2 |
| 20260509050637 | 11 | 220 | 0.0 | 0.0 | 0.00 | 0.00 | 0.00 | 84 | 1013.0 |
| 20260509050133 | 11 | 220 | 0.0 | 1.6 | 0.00 | 0.00 | 0.00 | 83 | 1012.9 |
| 20260509045631 | 11 | 221 | 0.0 | 0.0 | 0.00 | 0.00 | 0.00 | 84 | 1013.0 |
| 20260509045127 | 11 | 243 | 0.0 | 0.0 | 0.00 | 0.00 | 0.00 | 82 | 1012.9 |
| 20260509044625 | 11 | 249 | 0.0 | 0.0 | 0.00 | 0.00 | 0.00 | 81 | 1012.7 |
| 20260509044122 | 11 | 254 | 0.0 | 0.0 | 0.00 | 0.00 | 0.00 | 81 | 1012.9 |
| 20260509043618 | 11 | 254 | 0.0 | 0.0 | 0.00 | 0.00 | 0.00 | 80 | 1012.8 |
| 20260509043114 | 11 | 254 | 0.0 | 0.0 | 0.00 | 0.00 | 0.00 | 80 | 1012.8 |
| 20260509042611 | 11 | 254 | 1.6 | 1.6 | 0.00 | 0.00 | 0.00 | 81 | 1012.9 |
| 20260509042106 | 11 | 238 | 0.0 | 0.0 | 0.00 | 0.00 | 0.00 | 81 | 1012.9 |
| 20260509041603 | 11 | 238 | 0.0 | 0.0 | 0.00 | 0.00 | 0.00 | 80 | 1012.9 |
| 20260509041101 | 11 | 238 | 0.0 | 0.0 | 0.00 | 0.00 | 0.00 | 81 | 1013.0 |
| 20260509040559 | 11 | 238 | 0.0 | 0.0 | 0.00 | 0.00 | 0.00 | 80 | 1013.0 |
| 20260509040055 | 11 | 238 | 0.0 | 0.0 | 0.00 | 0.00 | 0.00 | 81 | 1012.9 |
| 20260509035552 | 11 | 238 | 0.0 | 0.0 | 0.00 | 0.00 | 0.00 | 80 | 1013.1 |
| 20260509035049 | 11 | 238 | 0.0 | 0.0 | 0.00 | 0.00 | 0.00 | 78 | 1013.1 |
| 20260509034548 | 11 | 238 | 0.0 | 0.0 | 0.00 | 0.00 | 0.00 | 77 | 1013.0 |
| 20260509034044 | 11 | 238 | 0.0 | 0.0 | 0.00 | 0.00 | 0.00 | 79 | 1012.8 |
| 20260509033541 | 11 | 235 | 0.0 | 1.6 | 0.00 | 0.00 | 0.00 | 81 | 1013.0 |
| 20260509033038 | 12 | 248 | 0.0 | 0.0 | 0.00 | 0.00 | 0.00 | 80 | 1012.8 |
| 20260509032536 | 12 | 248 | 1.6 | 1.6 | 0.00 | 0.00 | 0.00 | 80 | 1012.8 |
| 20260509032032 | 12 | 245 | 3.2 | 4.8 | 0.00 | 0.00 | 0.00 | 81 | 1012.9 |
| 20260509031530 | 12 | 233 | 0.0 | 1.6 | 0.00 | 0.00 | 0.00 | 80 | 1012.9 |
| 20260509031027 | 12 | 233 | 0.0 | 1.6 | 0.00 | 0.00 | 0.00 | 81 | 1013.0 |
| 20260509030525 | 12 | 176 | 0.0 | 0.0 | 0.00 | 0.00 | 0.00 | 80 | 1013.1 |
| 20260509030022 | 12 | 221 | 1.6 | 1.6 | 0.00 | 0.00 | 0.00 | 79 | 1012.9 |
| 20260509025518 | 12 | 291 | 0.0 | 0.0 | 0.00 | 0.00 | 0.00 | 78 | 1013.0 |
| 20260509025013 | 12 | 267 | 3.2 | 3.2 | 0.00 | 0.00 | 0.00 | 76 | 1013.1 |
| 20260509024509 | 12 | 241 | 1.6 | 3.2 | 0.00 | 0.00 | 0.00 | 76 | 1013.0 |
| 20260509024006 | 12 | 128 | 3.2 | 3.2 | 0.00 | 0.00 | 0.00 | 77 | 1013.1 |
| 20260509023504 | 12 | 216 | 0.0 | 0.0 | 0.00 | 0.00 | 0.00 | 76 | 1013.3 |
| 20260509023000 | 12 | 148 | 0.0 | 1.6 | 0.00 | 0.00 | 0.00 | 78 | 1013.5 |
| 20260509022457 | 12 | 148 | 0.0 | 0.0 | 0.00 | 0.00 | 0.00 | 77 | 1013.3 |
| 20260509021955 | 12 | 148 | 1.6 | 3.2 | 0.00 | 0.00 | 0.00 | 76 | 1013.4 |
| 20260509021452 | 12 | 201 | 3.2 | 3.2 | 0.00 | 0.00 | 0.00 | 77 | 1013.4 |
| 20260509020948 | 12 | 279 | 0.0 | 0.0 | 0.00 | 0.00 | 0.00 | 72 | 1013.1 |
| 20260509020447 | 12 | 279 | 1.6 | 3.2 | 0.00 | 0.00 | 0.00 | 75 | 1013.0 |
| 20260509015943 | 13 | 252 | 0.0 | 1.6 | 0.00 | 0.00 | 0.00 | 71 | 1013.2 |
| 20260509015443 | 12 | 198 | 0.0 | 1.6 | 0.00 | 0.00 | 0.00 | 72 | 1013.1 |
| 20260509014939 | 13 | 198 | 0.0 | 1.6 | 0.00 | 0.00 | 0.00 | 74 | 1012.9 |
| 20260509014436 | 13 | 198 | 0.0 | 1.6 | 0.00 | 0.00 | 0.00 | 72 | 1013.1 |
| 20260509013932 | 13 | 199 | 0.0 | 0.0 | 0.00 | 0.00 | 0.00 | 70 | 1012.9 |
| 20260509013429 | 12 | 199 | 0.0 | 0.0 | 0.00 | 0.00 | 0.00 | 71 | 1012.9 |
| 20260509012924 | 12 | 199 | 0.0 | 0.0 | 0.00 | 0.00 | 0.00 | 71 | 1012.8 |
| 20260509012421 | 12 | 199 | 0.0 | 1.6 | 0.00 | 0.00 | 0.00 | 73 | 1012.9 |
| 20260509011918 | 12 | 146 | 0.0 | 0.0 | 0.00 | 0.00 | 0.00 | 75 | 1012.8 |
| 20260509011416 | 13 | 146 | 1.6 | 3.2 | 0.00 | 0.00 | 0.00 | 79 | 1012.7 |
| 20260509010914 | 13 | 162 | 0.0 | 0.0 | 0.00 | 0.00 | 0.00 | 72 | 1012.8 |
| 20260509010411 | 13 | 162 | 1.6 | 3.2 | 0.00 | 0.00 | 0.00 | 71 | 1012.7 |
| 20260509005907 | 13 | 172 | 0.0 | 0.0 | 0.00 | 0.00 | 0.00 | 65 | 1012.7 |
| 20260509005406 | 13 | 172 | 0.0 | 0.0 | 0.00 | 0.00 | 0.00 | 63 | 1012.6 |
| 20260509004905 | 14 | 172 | 1.6 | 1.6 | 0.00 | 0.00 | 0.00 | 66 | 1012.6 |
| 20260509004402 | 14 | 193 | 1.6 | 1.6 | 0.00 | 0.00 | 0.00 | 58 | 1012.7 |
| 20260509003859 | 14 | 185 | 0.0 | 1.6 | 0.00 | 0.00 | 0.00 | 59 | 1012.6 |
| 20260509003357 | 14 | 185 | 0.0 | 0.0 | 0.00 | 0.00 | 0.00 | 57 | 1012.6 |
| 20260509002854 | 14 | 185 | 0.0 | 0.0 | 0.00 | 0.00 | 0.00 | 56 | 1012.5 |
| 20260509002352 | 15 | 185 | 0.0 | 1.6 | 0.00 | 0.00 | 0.00 | 56 | 1012.5 |
| 20260509001849 | 15 | 235 | 1.6 | 1.6 | 0.00 | 0.00 | 0.00 | 49 | 1012.6 |
| 20260509001345 | 16 | 271 | 1.6 | 1.6 | 0.00 | 0.00 | 0.00 | 50 | 1012.5 |
| 20260509000842 | 16 | 295 | 0.0 | 1.6 | 0.00 | 0.00 | 0.00 | 48 | 1012.4 |
| 20260509000340 | 16 | 295 | 0.0 | 1.6 | 0.00 | 0.00 | 0.00 | 49 | 1012.6 |
| 20260508235836 | 17 | 295 | 0.0 | 0.0 | 0.00 | 0.00 | 0.00 | 47 | 1012.3 |
| 20260508235333 | 17 | 295 | 0.0 | 0.0 | 0.00 | 0.00 | 0.00 | 44 | 1012.5 |
| 20260508234830 | 17 | 295 | 0.0 | 0.0 | 0.00 | 0.00 | 0.00 | 45 | 1012.2 |
| 20260508234327 | 17 | 295 | 0.0 | 0.0 | 0.00 | 0.00 | 0.00 | 42 | 1012.4 |
| 20260508233825 | 18 | 295 | 0.0 | 0.0 | 0.00 | 0.00 | 0.00 | 42 | 1012.2 |
| 20260508233324 | 18 | 295 | 0.0 | 0.0 | 0.00 | 0.00 | 0.00 | 41 | 1012.3 |
| 20260508232821 | 18 | 295 | 0.0 | 0.0 | 0.00 | 0.00 | 0.00 | 42 | 1012.2 |
| 20260508232317 | 18 | 295 | 0.0 | 0.0 | 0.00 | 0.00 | 0.00 | 42 | 1012.2 |
| 20260508231816 | 19 | 292 | 1.6 | 1.6 | 0.00 | 0.00 | 0.00 | 41 | 1012.3 |
| 20260508231311 | 19 | 271 | 0.0 | 0.0 | 0.00 | 0.00 | 0.00 | 40 | 1012.3 |
| 20260508230808 | 19 | 234 | 1.6 | 6.4 | 0.00 | 0.00 | 0.00 | 39 | 1012.2 |
| 20260508230305 | 19 | 274 | 1.6 | 3.2 | 0.00 | 0.00 | 0.00 | 40 | 1012.4 |
| 20260508225802 | 20 | 291 | 3.2 | 6.4 | 0.00 | 0.00 | 0.00 | 39 | 1012.4 |
| 20260508225259 | 20 | 279 | 1.6 | 3.2 | 0.00 | 0.00 | 0.00 | 40 | 1012.2 |
| 20260508224757 | 19 | 309 | 4.8 | 4.8 | 0.00 | 0.00 | 0.00 | 38 | 1012.3 |
| 20260508224254 | 19 | 291 | 0.0 | 0.0 | 0.00 | 0.00 | 0.00 | 39 | 1012.3 |
| 20260508223752 | 19 | 291 | 0.0 | 0.0 | 0.00 | 0.00 | 0.00 | 40 | 1012.4 |
| 20260508223249 | 18 | 297 | 0.0 | 3.2 | 0.00 | 0.00 | 0.00 | 43 | 1012.3 |
| 20260508222746 | 18 | 251 | 1.6 | 3.2 | 0.00 | 0.00 | 0.00 | 40 | 1012.4 |
| 20260508222243 | 18 | 243 | 0.0 | 0.0 | 0.00 | 0.00 | 0.00 | 43 | 1012.4 |
| 20260508221739 | 18 | 253 | 0.0 | 1.6 | 0.00 | 0.00 | 0.00 | 40 | 1012.5 |
| 20260508221236 | 18 | 284 | 6.4 | 9.7 | 0.00 | 0.00 | 0.00 | 38 | 1012.4 |
| 20260508220731 | 18 | 261 | 1.6 | 3.2 | 0.00 | 0.00 | 0.00 | 42 | 1012.5 |
| 20260508220228 | 18 | 275 | 0.0 | 3.2 | 0.00 | 0.00 | 0.00 | 42 | 1012.7 |
| 20260508215725 | 18 | 321 | 11.3 | 12.9 | 0.00 | 0.00 | 0.00 | 42 | 1012.6 |
| 20260508215221 | 18 | 264 | 3.2 | 4.8 | 0.00 | 0.00 | 0.00 | 40 | 1012.5 |
| 20260508214719 | 18 | 317 | 9.7 | 12.9 | 0.00 | 0.00 | 0.00 | 40 | 1012.5 |
| 20260508214216 | 19 | 301 | 9.7 | 17.7 | 0.00 | 0.00 | 0.00 | 40 | 1012.6 |
| 20260508213712 | 20 | 298 | 6.4 | 12.9 | 0.00 | 0.00 | 0.00 | 39 | 1012.5 |
| 20260508213209 | 20 | 296 | 4.8 | 12.9 | 0.00 | 0.00 | 0.00 | 40 | 1012.6 |
| 20260508212705 | 20 | 303 | 9.7 | 11.3 | 0.00 | 0.00 | 0.00 | 38 | 1012.6 |
| 20260508212202 | 19 | 293 | 4.8 | 6.4 | 0.00 | 0.00 | 0.00 | 40 | 1012.9 |
| 20260508211657 | 20 | 301 | 3.2 | 6.4 | 0.00 | 0.00 | 0.00 | 40 | 1012.9 |
| 20260508211153 | 20 | 296 | 0.0 | 3.2 | 0.00 | 0.00 | 0.00 | 41 | 1012.7 |
| 20260508210651 | 20 | 317 | 3.2 | 4.8 | 0.00 | 0.00 | 0.00 | 38 | 1012.7 |
| 20260508210148 | 19 | 222 | 1.6 | 3.2 | 0.00 | 0.00 | 0.00 | 38 | 1012.9 |
| 20260508205645 | 19 | 286 | 3.2 | 6.4 | 0.00 | 0.00 | 0.00 | 40 | 1012.8 |
| 20260508205141 | 19 | 333 | 6.4 | 14.5 | 0.00 | 0.00 | 0.00 | 39 | 1013.0 |
| 20260508204637 | 18 | 301 | 3.2 | 3.2 | 0.00 | 0.00 | 0.00 | 39 | 1013.1 |
| 20260508204134 | 18 | 224 | 1.6 | 4.8 | 0.00 | 0.00 | 0.00 | 42 | 1013.2 |
| 20260508203630 | 18 | 264 | 3.2 | 6.4 | 0.00 | 0.00 | 0.00 | 41 | 1013.3 |
| 20260508203126 | 18 | 296 | 4.8 | 11.3 | 0.00 | 0.00 | 0.00 | 40 | 1013.3 |
| 20260508202622 | 18 | 296 | 6.4 | 11.3 | 0.00 | 0.00 | 0.00 | 41 | 1013.3 |
| 20260508202120 | 18 | 277 | 0.0 | 1.6 | 0.00 | 0.00 | 0.00 | 42 | 1013.2 |